Probability
77 77 81 81 71 68 61 55 52 52 48 45 42 42 42 42 35 32 32 29 23 19 13 13 13 10 10 6 6 6 3 3 3 6 0 0 3 3 3 3 0 0 0
77 81 77 74 65 68 65 58 52 48 48 42 42 39 39 35 32 29 29 26 19 16 16 13 13 10 10 13 10 10 3 3 3 3 0 0 0 0 3 3 3 3 0
81 74 74 68 68 68 65 58 52 48 42 42 42 35 35 35 32 29 29 29 26 19 13 13 13 13 13 13 13 13 10 10 6 6 3 3 0 0 0 0 0 0 0
74 74 71 68 65 65 61 58 55 45 39 39 35 32 32 29 32 29 29 29 19 19 16 13 13 10 6 10 10 10 13 13 6 3 3 3 3 0 0 0 3 3 3
74 71 71 71 68 58 52 48 42 39 35 32 35 32 32 29 23 23 23 23 23 19 16 13 10 10 10 10 13 10 10 10 6 6 6 6 3 3 3 3 3 3 3
71 71 71 71 65 55 55 52 45 35 29 26 32 29 26 19 19 19 19 19 19 16 13 10 10 10 10 6 3 3 3 3 6 6 6 6 6 3 0 3 3 3 3
65 68 68 71 65 55 55 48 39 35 35 26 19 13 19 19 19 16 6 10 13 10 10 10 10 6 6 6 6 3 3 0 0 3 3 6 6 6 3 3 3 3 3
65 65 58 61 58 58 52 45 42 42 35 16 16 13 10 16 13 6 6 6 3 6 6 10 6 6 6 6 6 6 6 6 6 0 3 3 6 6 6 6 6 3 3
52 55 55 52 55 52 45 45 42 32 19 16 16 16 16 13 13 3 0 6 3 3 6 6 6 6 3 3 3 3 6 6 6 0 0 0 0 0 0 3 3 3 6
55 52 52 48 48 42 39 29 29 19 19 19 16 16 16 13 10 3 0 3 6 6 6 6 3 3 3 0 3 3 3 3 3 3 3 0 0 0 0 0 0 3 3
45 45 52 42 39 39 26 29 26 23 19 16 16 13 13 13 6 6 0 3 3 3 3 3 3 3 0 0 0 3 3 3 3 3 3 3 3 3 3 3 0 0 0
42 35 35 42 39 29 26 23 23 23 23 16 13 10 10 6 6 3 0 0 3 3 3 3 3 3 3 0 0 0 0 0 0 3 3 3 3 3 3 3 3 3 0
29 26 32 29 13 19 19 19 19 23 23 23 13 10 10 6 3 3 3 0 0 3 3 3 3 3 3 0 0 0 0 0 3 3 3 3 3 3 3 3 3 0 0
23 23 16 13 13 10 16 16 16 16 16 13 13 13 6 3 3 3 3 3 0 0 3 3 3 0 0 0 0 0 0 3 3 3 3 3 3 3 3 3 3 3 0
16 13 13 10 10 6 3 6 6 3 3 10 13 10 6 3 3 3 3 3 3 3 3 3 3 3 3 3 3 3 3 3 3 3 3 3 3 3 3 3 0 0 0
16 10 10 10 10 3 3 3 3 3 3 3 3 3 3 3 3 3 3 3 3 3 3 3 3 3 3 3 3 3 3 3 3 3 3 0 0 0 0 0 0 0 0
10 6 10 10 6 3 3 3 3 3 3 0 0 0 3 3 3 3 3 0 0 0 3 3 3 3 3 3 3 3 3 0 0 0 0 0 0 0 0 0 0 0 0
6 6 10 10 6 3 3 3 3 3 3 3 3 0 0 0 0 0 0 0 0 0 0 3 3 3 0 0 0 0 0 0 0 0 0 0 0 0 0 0 0 0 0
6 3 6 3 6 6 3 3 3 3 3 3 3 3 0 0 0 0 0 0 3 0 0 0 0 0 0 0 0 0 0 0 0 0 0 0 0 0 0 0 0 0 0
3 0 6 3 0 3 3 3 3 3 3 3 3 3 0 0 0 0 0 0 3 3 0 0 0 0 0 0 0 0 0 0 0 0 0 0 0 0 0 0 0 0 0
0 0 3 3 0 3 3 3 3 3 3 3 3 3 0 0 0 0 0 0 0 0 0 0 0 0 0 0 0 0 0 0 0 0 0 0 0 0 0 0 0 0 0
0 0 0 0 0 0 3 3 3 3 3 3 3 0 0 0 0 0 0 0 0 0 0 0 0 0 0 0 0 0 0 0 0 0 0 0 0 0 0 0 0 0 0
0 0 0 0 0 0 0 0 0 3 3 3 3 3 0 0 0 0 0 0 0 0 0 0 0 0 0 0 0 0 0 0 0 0 0 0 0 0 0 0 0 0 0
0 0 0 0 0 0 0 3 3 3 3 3 0 0 0 0 0 0 0 0 0 0 0 0 0 0 0 0 0 0 0 0 0 0 0 0 0 0 0 0 0 0 0
0 0 0 0 0 0 0 0 3 3 3 3 0 0 0 0 0 0 0 0 0 0 0 0 0 0 0 0 0 0 0 0 0 0 0 0 0 0 0 0 0 0 0
0 0 0 0 0 0 0 0 3 3 3 0 0 0 0 0 0 0 0 0 0 0 0 0 0 0 0 0 0 0 0 0 0 0 0 0 0 0 0 0 0 0 0
Height
5900 5899 5899 5898 5897 5896 5894 5893 5892 5890 5889 5888 5887 5885 5884 5883 5882 5882 5881 5880 5879 5878 5877 5876 5875 5874 5874 5873 5872 5871 5869 5868 5867 5865 5864 5863 5861 5860 5859 5857 5856 5854 5853
5897 5896 5896 5895 5894 5893 5891 5890 5889 5887 5886 5885 5884 5883 5882 5881 5880 5879 5878 5877 5876 5875 5873 5872 5871 5870 5869 5869 5867 5866 5864 5863 5862 5861 5859 5858 5856 5855 5853 5852 5850 5849 5847
5894 5893 5893 5892 5891 5890 5888 5887 5886 5884 5883 5882 5881 5880 5879 5878 5877 5876 5875 5873 5872 5871 5869 5868 5867 5866 5865 5864 5862 5861 5860 5858 5857 5856 5854 5852 5851 5849 5847 5846 5845 5843 5841
5890 5889 5889 5888 5888 5887 5885 5884 5883 5881 5879 5878 5878 5876 5875 5874 5873 5872 5871 5870 5868 5867 5865 5864 5863 5861 5860 5859 5857 5856 5855 5853 5852 5850 5849 5847 5846 5844 5842 5840 5838 5836 5835
5887 5886 5885 5885 5884 5883 5882 5881 5879 5878 5876 5875 5874 5873 5872 5870 5869 5868 5867 5866 5864 5863 5862 5860 5858 5856 5855 5854 5852 5851 5850 5848 5846 5845 5843 5842 5840 5838 5836 5834 5832 5830 5828
5883 5882 5881 5880 5880 5879 5878 5877 5876 5874 5873 5871 5870 5869 5868 5867 5866 5864 5863 5862 5860 5859 5857 5856 5854 5852 5850 5849 5848 5846 5845 5843 5841 5839 5837 5835 5834 5832 5830 5827 5825 5823 5820
5879 5878 5877 5877 5876 5875 5874 5873 5872 5870 5869 5867 5866 5865 5864 5863 5861 5860 5858 5857 5856 5855 5853 5851 5849 5848 5846 5844 5842 5841 5839 5837 5835 5833 5831 5829 5827 5825 5823 5820 5817 5815 5813
5874 5874 5873 5873 5872 5871 5869 5868 5867 5865 5864 5863 5862 5860 5859 5858 5856 5855 5854 5852 5851 5850 5848 5846 5844 5842 5840 5839 5837 5835 5833 5831 5829 5827 5825 5822 5820 5817 5815 5812 5809 5807 5804
5869 5869 5868 5868 5867 5866 5865 5864 5862 5861 5859 5858 5857 5855 5854 5853 5851 5850 5849 5847 5846 5844 5843 5841 5839 5837 5835 5833 5831 5828 5826 5824 5822 5819 5817 5815 5812 5810 5807 5804 5801 5798 5795
5863 5863 5863 5862 5861 5861 5860 5859 5857 5856 5854 5853 5851 5850 5849 5847 5846 5845 5843 5842 5840 5839 5837 5835 5833 5831 5829 5826 5824 5822 5819 5817 5815 5812 5810 5807 5804 5801 5798 5795 5792 5789 5786
5857 5857 5856 5855 5855 5855 5854 5853 5851 5850 5848 5847 5846 5845 5843 5842 5840 5839 5837 5836 5834 5833 5831 5829 5827 5824 5822 5820 5817 5815 5812 5810 5807 5804 5802 5799 5796 5792 5789 5786 5783 5780 5777
5850 5850 5850 5849 5849 5848 5847 5846 5845 5844 5842 5840 5839 5838 5837 5835 5834 5832 5831 5829 5828 5826 5824 5822 5820 5817 5815 5812 5810 5807 5805 5802 5799 5796 5793 5790 5787 5783 5780 5776 5773 5770 5766
5843 5843 5843 5842 5842 5841 5841 5839 5838 5837 5836 5834 5832 5831 5830 5828 5827 5826 5824 5822 5821 5819 5817 5815 5812 5810 5807 5804 5802 5799 5796 5793 5791 5788 5784 5781 5778 5774 5770 5767 5763 5759 5756
5835 5835 5835 5835 5835 5834 5834 5833 5832 5830 5829 5828 5826 5824 5823 5822 5820 5819 5817 5816 5814 5811 5809 5807 5805 5802 5799 5796 5794 5791 5788 5785 5782 5778 5775 5772 5768 5765 5761 5757 5753 5749 5745
5827 5827 5828 5828 5828 5828 5827 5826 5825 5824 5822 5821 5820 5818 5817 5816 5814 5812 5810 5809 5806 5804 5802 5799 5797 5794 5791 5788 5785 5782 5779 5776 5772 5769 5765 5762 5758 5754 5751 5747 5743 5739 5735
5820 5820 5821 5821 5821 5821 5820 5819 5818 5818 5816 5815 5813 5812 5810 5809 5807 5805 5804 5801 5799 5797 5794 5791 5789 5786 5783 5779 5776 5773 5770 5766 5763 5759 5756 5752 5748 5744 5740 5736 5732 5728 5723
5813 5814 5814 5815 5815 5814 5813 5812 5812 5811 5809 5808 5807 5805 5804 5802 5800 5798 5796 5794 5792 5789 5786 5783 5780 5777 5774 5770 5767 5764 5760 5757 5753 5749 5746 5742 5738 5733 5729 5725 5721 5716 5712
5807 5808 5808 5809 5809 5808 5807 5806 5805 5804 5803 5802 5800 5799 5797 5795 5793 5791 5789 5786 5784 5781 5778 5775 5772 5769 5765 5761 5758 5754 5751 5747 5743 5739 5735 5731 5727 5722 5718 5714 5709 5705 5701
5801 5802 5803 5803 5802 5802 5801 5800 5799 5798 5796 5795 5794 5792 5790 5788 5786 5784 5781 5779 5776 5773 5770 5767 5764 5760 5757 5753 5749 5745 5742 5738 5734 5730 5725 5721 5716 5712 5707 5703 5698 5694 5690
5796 5797 5797 5797 5796 5795 5795 5794 5793 5791 5789 5788 5786 5785 5783 5781 5778 5776 5773 5771 5768 5765 5762 5759 5756 5752 5748 5745 5741 5737 5733 5728 5724 5720 5715 5711 5706 5702 5697 5692 5688 5683 5679
5791 5791 5791 5790 5790 5789 5788 5787 5786 5785 5783 5781 5780 5778 5775 5773 5771 5768 5766 5763 5760 5757 5754 5751 5747 5744 5740 5736 5732 5728 5724 5719 5715 5710 5705 5701 5696 5691 5687 5682 5677 5672 5668
5784 5785 5785 5784 5784 5783 5782 5781 5780 5778 5777 5775 5773 5771 5768 5766 5764 5761 5757 5754 5751 5749 5745 5742 5739 5735 5731 5728 5723 5719 5715 5710 5705 5700 5695 5690 5686 5681 5676 5671 5667 5662 5657
5779 5779 5778 5778 5777 5776 5775 5774 5773 5772 5770 5768 5766 5764 5761 5759 5756 5753 5750 5747 5744 5741 5737 5734 5730 5726 5722 5718 5714 5710 5705 5701 5696 5691 5686 5681 5676 5671 5666 5662 5657 5652 5648
5772 5772 5772 5771 5771 5770 5769 5768 5766 5764 5763 5761 5759 5757 5754 5752 5749 5746 5743 5740 5736 5733 5729 5725 5721 5717 5713 5709 5705 5700 5696 5691 5686 5681 5676 5671 5666 5662 5657 5653 5648 5643 5638
5766 5766 5766 5765 5765 5763 5762 5761 5759 5757 5756 5754 5751 5749 5747 5744 5741 5738 5735 5732 5728 5725 5721 5717 5713 5709 5704 5700 5695 5691 5686 5681 5676 5672 5667 5662 5658 5653 5649 5644 5639 5634 5630
5760 5760 5760 5759 5758 5757 5756 5754 5752 5750 5749 5747 5744 5742 5739 5736 5733 5730 5727 5723 5720 5716 5712 5708 5704 5700 5695 5691 5686 5682 5677 5672 5667 5663 5658 5654 5649 5645 5640 5636 5631 5626 5622
Wind_Speed
9 9 8 8 9 10 10 10 10 10 10 10 10 10 10 11 11 11 12 12 13 13 13 14 15 15 15 16 17 17 17 17 17 18 19 19 19 19 19 19 20 20 20
10 10 9 9 9 10 10 10 10 11 11 10 10 10 11 11 11 12 13 13 14 14 15 15 15 16 16 16 16 17 17 17 17 17 19 20 20 21 21 21 21 21 21
10 10 11 11 10 11 11 11 11 11 11 11 10 11 11 12 13 13 13 14 15 15 16 16 16 16 16 17 17 17 17 17 18 18 18 19 20 21 21 21 22 22 23
12 12 11 11 11 12 12 12 11 11 11 11 11 11 12 12 13 14 14 14 15 15 16 16 16 16 17 17 17 17 17 18 19 19 19 20 20 20 21 21 22 23 24
13 12 12 12 12 13 13 13 12 13 12 12 12 12 13 14 14 14 15 15 15 15 16 17 17 17 17 17 17 17 18 18 19 19 20 20 20 21 22 22 23 24 25
14 14 14 13 13 14 14 14 14 14 14 13 13 13 14 15 15 15 15 15 16 16 17 17 17 17 17 18 18 18 19 19 19 20 20 21 22 23 24 24 25 26 27
15 15 15 15 14 14 15 14 15 14 14 14 14 15 16 16 16 17 16 16 17 18 18 18 18 18 18 18 18 19 20 20 21 22 22 23 24 24 25 26 26 27 27
16 16 17 16 16 16 15 15 15 16 16 16 17 17 17 17 18 18 17 18 18 18 18 19 19 20 19 19 20 22 23 23 23 23 23 24 25 26 27 27 28 29 29
18 18 18 18 17 17 17 17 17 17 17 17 18 18 17 17 18 18 18 18 19 19 20 20 21 22 22 22 23 23 24 24 24 25 25 26 26 27 28 29 29 30 30
20 20 20 20 19 18 18 18 18 18 19 19 19 19 18 19 19 19 19 20 20 20 21 21 21 22 23 24 24 25 25 25 26 26 26 27 28 28 29 30 31 31 31
22 22 22 22 21 20 20 20 19 19 20 19 20 20 20 20 20 20 21 21 21 22 22 23 23 24 24 25 25 26 26 26 27 27 28 29 29 30 31 31 32 32 33
23 23 23 23 23 23 23 22 22 21 21 21 21 21 21 20 21 21 22 23 23 23 24 25 25 25 25 26 26 27 27 27 28 29 29 30 31 31 32 33 33 34 34
24 24 24 24 24 25 24 24 23 23 23 23 22 22 22 22 22 22 22 23 23 24 25 25 26 26 27 27 27 28 28 29 30 30 31 32 33 33 34 35 35 35 35
26 25 26 26 25 25 24 25 25 25 25 23 22 23 23 23 23 23 23 24 25 25 26 26 27 27 28 28 29 29 30 31 32 32 33 33 34 35 35 35 36 36 37
27 27 27 26 26 26 26 26 24 25 24 23 23 23 22 23 23 23 23 24 25 26 26 27 28 28 29 30 30 31 31 32 33 33 34 34 35 35 36 37 37 38 38
25 26 26 25 25 25 26 26 25 24 23 23 22 22 22 23 23 23 24 25 26 26 27 28 28 29 30 30 31 31 32 32 33 34 34 35 36 36 37 37 38 39 39
23 23 23 24 24 24 24 24 24 24 23 23 23 23 23 24 24 25 25 26 27 28 28 29 29 30 30 31 31 32 33 34 35 35 36 37 37 38 38 38 38 39 39
22 22 23 23 23 23 22 22 23 23 23 23 24 24 24 25 25 26 26 26 27 27 28 29 29 30 30 30 31 32 33 34 35 35 36 36 37 38 38 38 38 38 39
21 22 22 22 23 23 23 23 23 23 23 23 24 24 24 25 25 26 26 27 27 28 28 29 29 30 30 30 31 32 33 34 34 35 36 36 36 37 37 37 37 38 39
21 20 21 21 21 22 22 23 23 23 23 24 24 24 25 25 25 26 26 27 28 28 28 29 29 30 31 31 32 32 33 34 35 36 36 36 36 37 37 37 38 38 38
19 20 20 20 21 21 22 22 22 23 23 23 24 24 25 25 26 26 27 28 28 29 29 30 30 31 31 32 32 33 34 34 35 36 36 36 36 37 37 38 39 39 39
19 19 19 20 21 22 22 22 22 23 23 24 24 25 25 26 27 28 28 28 29 30 30 30 31 31 31 32 33 33 34 35 36 36 36 36 37 37 37 37 37 37 37
20 21 21 21 21 22 22 23 24 24 24 24 25 25 25 26 26 27 27 28 29 30 30 31 32 32 32 33 33 34 34 35 36 37 36 36 36 36 35 35 35 35 35
20 21 21 21 22 22 23 23 24 25 25 25 25 25 25 26 27 27 28 29 29 30 30 31 31 32 33 34 34 35 35 36 36 36 36 35 34 34 34 34 34 34 33
20 20 21 22 22 23 23 24 25 25 25 25 25 26 26 27 28 28 29 29 29 30 31 31 32 33 34 34 35 35 35 35 35 34 33 33 33 33 33 33 33 33 32
21 21 21 21 22 22 23 24 24 24 24 25 25 26 27 28 28 29 29 30 31 31 31 32 32 33 34 34 34 34 34 33 32 32 32 32 32 32 32 32 32 32 31
Wind_Direction
286 286 288 292 300 303 306 305 306 307 302 296 296 294 293 292 289 288 288 290 292 289 286 286 285 284 284 285 287 289 288 285 282 281 283 284 285 286 286 286 285 285 281
283 281 282 286 294 301 302 300 300 300 296 296 297 292 292 291 290 288 287 288 291 290 291 291 290 286 284 286 289 290 288 287 286 285 286 286 285 284 286 284 283 284 284
276 281 281 285 288 294 299 300 298 296 293 292 294 293 292 291 289 287 290 291 292 293 294 294 293 290 285 286 288 287 286 286 287 287 288 290 288 288 288 285 283 284 284
274 277 281 285 289 294 299 302 299 299 298 296 296 296 293 292 292 290 290 292 293 295 295 295 292 289 285 287 289 288 288 287 288 288 288 290 290 288 289 287 284 284 284
273 276 280 284 289 292 294 297 297 300 300 297 295 295 295 293 294 292 291 291 293 295 296 296 294 292 288 288 292 293 293 291 290 289 290 291 290 289 289 289 287 285 284
270 272 276 280 287 290 292 294 295 296 297 294 292 291 293 292 291 291 291 290 291 293 296 298 296 295 292 291 292 294 296 296 296 294 292 292 290 289 289 289 289 287 285
267 272 275 281 285 287 289 292 294 294 291 291 292 289 288 288 289 291 289 291 291 291 294 296 296 294 292 291 292 293 295 296 295 294 292 292 292 291 290 291 290 289 287
265 270 272 277 282 285 287 290 290 290 289 287 289 290 288 287 286 288 292 294 293 292 293 293 292 292 292 291 292 293 293 294 295 294 292 292 292 291 291 291 291 289 288
264 267 270 274 279 282 284 286 288 290 291 289 288 289 289 289 288 287 288 290 291 291 292 292 291 292 291 293 293 293 292 293 294 294 293 292 293 292 292 291 290 289 289
262 265 268 272 275 279 281 284 286 287 289 289 287 287 287 289 288 287 288 288 289 291 294 294 294 293 294 294 294 293 291 292 293 293 293 293 293 293 293 293 292 291 291
262 266 267 269 273 277 280 283 285 286 287 286 287 288 288 288 286 286 287 288 288 289 291 292 293 294 293 293 292 292 292 292 292 293 293 294 294 294 294 294 293 292 292
262 265 267 269 272 275 277 279 283 285 287 286 286 288 288 287 286 287 289 290 290 291 292 293 293 293 293 293 293 293 293 293 293 293 294 295 295 295 295 294 294 292 291
262 265 268 268 269 270 274 276 280 283 284 287 287 289 289 289 289 291 293 294 293 293 293 293 292 293 292 293 294 293 293 293 294 294 294 295 296 296 296 295 293 293 292
263 265 267 269 271 273 276 279 280 281 283 285 288 288 291 292 292 293 294 294 293 293 293 293 293 293 293 293 293 293 293 294 294 294 294 295 296 297 297 297 296 295 295
264 264 266 268 272 276 278 282 283 283 284 289 293 293 291 292 292 293 294 296 296 295 295 295 295 294 293 292 292 293 294 295 295 295 295 295 296 296 296 296 297 296 296
264 265 267 270 272 276 279 280 281 283 286 291 293 291 291 291 291 293 296 297 297 297 297 297 297 296 295 293 294 294 295 295 295 295 296 296 296 296 296 296 296 296 297
263 265 268 271 275 278 279 281 283 282 285 290 292 291 292 293 293 294 295 296 297 297 297 297 297 297 298 296 295 295 294 295 295 296 296 297 296 297 296 297 297 297 297
263 265 268 271 275 277 280 283 286 285 287 290 290 291 292 293 293 293 294 294 295 297 298 298 298 300 301 300 299 297 297 298 298 298 299 300 299 299 299 299 298 298 298
265 267 268 271 275 278 280 283 286 289 288 288 290 292 292 293 293 293 294 295 296 297 298 299 300 301 302 302 302 301 301 301 301 302 302 302 302 301 301 301 300 300 301
265 270 270 272 277 280 281 283 287 290 291 291 292 292 293 294 295 296 296 296 296 297 298 300 301 301 301 301 302 302 303 303 303 304 303 303 303 303 303 303 302 303 302
265 269 270 273 278 281 284 285 288 291 293 295 295 296 296 295 297 299 298 297 298 299 299 300 301 302 302 303 303 304 304 304 304 304 304 304 304 304 304 304 304 304 304
265 268 273 277 281 284 286 288 289 290 292 294 295 296 296 296 298 299 300 299 299 300 301 301 302 302 303 304 304 305 304 305 305 306 306 306 306 305 305 305 305 305 306
267 272 277 281 283 286 289 290 291 292 292 294 295 297 297 298 298 299 300 301 303 303 302 302 302 302 303 304 305 305 306 307 307 307 308 308 307 307 307 307 307 308 308
273 276 279 281 285 286 288 290 291 292 294 295 296 295 295 296 298 300 301 302 303 304 304 304 303 304 305 306 307 307 307 308 308 308 309 309 308 308 308 308 309 310 310
274 276 279 282 285 286 287 289 290 292 293 293 294 295 295 296 299 300 300 301 303 304 304 305 305 306 306 307 307 308 308 309 310 309 309 310 310 310 310 311 311 312 312
277 279 280 283 285 286 287 288 288 290 291 292 294 296 297 297 299 299 300 302 303 304 305 306 307 307 307 308 309 311 312 312 312 312 312 312 313 313 313 314 314 314 314